TimeCST,TemperatureF,Dew PointF,Humidity,Sea Level PressureIn,VisibilityMPH,Wind Direction,Wind SpeedMPH,Gust SpeedMPH,PrecipitationIn,Events,Conditions,WindDirDegrees,DateUTC
12:15 AM,15.8,12.2,86,30.04,10.0,South,4.6,-,N/A,,Clear,180,2013-01-05 06:15:00
12:35 AM,15.8,12.2,86,30.04,10.0,South,3.5,-,N/A,,Clear,180,2013-01-05 06:35:00
1:15 AM,15.8,10.4,79,30.04,10.0,Calm,Calm,-,N/A,,Clear,0,2013-01-05 07:15:00
1:35 AM,15.8,10.4,79,30.03,10.0,South,5.8,-,N/A,,Clear,190,2013-01-05 07:35:00
1:55 AM,15.8,10.4,79,30.02,10.0,South,5.8,-,N/A,,Clear,180,2013-01-05 07:55:00
2:15 AM,15.8,10.4,79,30.01,10.0,South,4.6,-,N/A,,Clear,180,2013-01-05 08:15:00
2:35 AM,14.0,10.4,86,30.01,10.0,South,8.1,-,N/A,,Clear,180,2013-01-05 08:35:00
2:55 AM,12.2,10.4,92,30.01,10.0,South,8.1,-,N/A,,Clear,180,2013-01-05 08:55:00
3:15 AM,12.2,8.6,85,30.00,10.0,South,6.9,-,N/A,,Clear,190,2013-01-05 09:15:00
3:35 AM,10.4,8.6,92,29.99,10.0,South,9.2,-,N/A,,Clear,180,2013-01-05 09:35:00
3:55 AM,10.4,8.6,92,29.98,10.0,South,5.8,-,N/A,,Clear,180,2013-01-05 09:55:00
4:15 AM,12.2,8.6,85,29.98,10.0,South,6.9,-,N/A,,Clear,180,2013-01-05 10:15:00
4:35 AM,12.2,8.6,85,29.97,10.0,SSW,5.8,-,N/A,,Clear,210,2013-01-05 10:35:00
4:55 AM,12.2,8.6,85,29.96,10.0,SSW,3.5,-,N/A,,Clear,210,2013-01-05 10:55:00
5:15 AM,10.4,6.8,85,29.96,10.0,SW,5.8,-,N/A,,Clear,230,2013-01-05 11:15:00
5:35 AM,8.6,6.8,92,29.97,10.0,West,3.5,-,N/A,,Clear,270,2013-01-05 11:35:00
5:55 AM,10.4,8.6,92,29.96,10.0,South,5.8,-,N/A,,Clear,180,2013-01-05 11:55:00
6:15 AM,10.4,8.6,92,29.95,10.0,South,6.9,-,N/A,,Clear,190,2013-01-05 12:15:00
6:35 AM,8.6,6.8,92,29.96,10.0,SW,4.6,-,N/A,,Clear,220,2013-01-05 12:35:00
7:15 AM,8.6,6.8,92,29.98,10.0,West,6.9,-,N/A,,Clear,260,2013-01-05 13:15:00
7:35 AM,6.8,3.2,85,29.97,10.0,SW,5.8,-,N/A,,Clear,220,2013-01-05 13:35:00
7:55 AM,10.4,6.8,85,29.95,10.0,SSW,9.2,-,N/A,,Clear,200,2013-01-05 13:55:00
8:15 AM,8.6,6.8,92,29.95,10.0,SSW,6.9,-,N/A,,Clear,200,2013-01-05 14:15:00
8:35 AM,10.4,6.8,85,29.96,10.0,WSW,6.9,-,N/A,,Clear,240,2013-01-05 14:35:00
8:55 AM,8.6,5.0,85,29.96,10.0,West,6.9,-,N/A,,Clear,270,2013-01-05 14:55:00
9:15 AM,8.6,6.8,92,29.95,10.0,Calm,Calm,-,N/A,,Clear,0,2013-01-05 15:15:00
9:55 AM,12.2,8.6,85,29.96,10.0,WSW,6.9,-,N/A,,Clear,240,2013-01-05 15:55:00
10:15 AM,12.2,8.6,85,29.96,10.0,SW,6.9,-,N/A,,Clear,230,2013-01-05 16:15:00
10:55 AM,15.8,10.4,79,29.96,10.0,SW,8.1,-,N/A,,Clear,220,2013-01-05 16:55:00
11:15 AM,15.8,10.4,79,29.96,10.0,WSW,8.1,-,N/A,,Clear,240,2013-01-05 17:15:00
11:55 AM,17.6,12.2,79,29.95,10.0,WSW,4.6,-,N/A,,Clear,240,2013-01-05 17:55:00
12:15 PM,19.4,12.2,74,29.94,10.0,WSW,5.8,-,N/A,,Clear,250,2013-01-05 18:15:00
12:35 PM,19.4,15.8,86,29.93,10.0,West,9.2,-,N/A,,Clear,280,2013-01-05 18:35:00
12:55 PM,21.2,15.8,80,29.92,10.0,West,9.2,-,N/A,,Clear,260,2013-01-05 18:55:00
1:15 PM,21.2,15.8,80,29.91,10.0,West,9.2,-,N/A,,Clear,270,2013-01-05 19:15:00
1:35 PM,23.0,15.8,74,29.92,10.0,West,10.4,-,N/A,,Clear,270,2013-01-05 19:35:00
1:55 PM,24.8,17.6,74,29.91,10.0,West,13.8,-,N/A,,Clear,270,2013-01-05 19:55:00
2:15 PM,26.6,17.6,69,29.91,10.0,West,16.1,-,N/A,,Clear,280,2013-01-05 20:15:00
2:35 PM,26.6,19.4,74,29.92,10.0,West,17.3,21.9,N/A,,Clear,280,2013-01-05 20:35:00
2:55 PM,26.6,19.4,74,29.92,10.0,WNW,16.1,-,N/A,,Clear,290,2013-01-05 20:55:00
3:15 PM,26.6,21.2,80,29.93,10.0,WNW,21.9,26.5,N/A,,Clear,300,2013-01-05 21:15:00
3:35 PM,26.6,21.2,80,29.95,10.0,NW,18.4,23.0,N/A,,Clear,310,2013-01-05 21:35:00
3:55 PM,26.6,19.4,74,29.95,10.0,NW,13.8,21.9,N/A,,Mostly Cloudy,320,2013-01-05 21:55:00
4:15 PM,26.6,21.2,80,29.95,10.0,NW,23.0,27.6,N/A,,Overcast,310,2013-01-05 22:15:00
5:15 PM,24.8,19.4,80,29.98,7.0,NW,25.3,32.2,N/A,,Overcast,310,2013-01-05 23:15:00
5:35 PM,24.8,19.4,80,29.99,5.0,NW,25.3,-,N/A,Snow,Light Snow,310,2013-01-05 23:35:00
5:55 PM,23.0,17.6,80,30.00,4.0,WNW,24.2,28.8,N/A,Snow,Light Snow,300,2013-01-05 23:55:00
6:15 PM,21.2,17.6,86,30.01,7.0,NW,25.3,31.1,N/A,,Overcast,310,2013-01-06 00:15:00
6:35 PM,21.2,17.6,86,30.02,7.0,WNW,23.0,26.5,N/A,,Overcast,300,2013-01-06 00:35:00
6:55 PM,21.2,17.6,86,30.03,4.0,NW,26.5,29.9,N/A,,Overcast,310,2013-01-06 00:55:00
7:15 PM,21.2,15.8,80,30.04,5.0,NW,24.2,29.9,N/A,,Haze,310,2013-01-06 01:15:00
7:35 PM,19.4,15.8,86,30.04,4.0,WNW,23.0,31.1,N/A,,Overcast,300,2013-01-06 01:35:00
7:55 PM,19.4,15.8,86,30.05,5.0,NW,19.6,25.3,N/A,,Overcast,320,2013-01-06 01:55:00
8:15 PM,19.4,15.8,86,30.06,7.0,NW,24.2,28.8,N/A,,Overcast,310,2013-01-06 02:15:00
8:35 PM,17.6,12.2,79,30.07,7.0,NW,18.4,27.6,N/A,,Overcast,320,2013-01-06 02:35:00
8:55 PM,17.6,12.2,79,30.07,10.0,NW,23.0,27.6,N/A,,Overcast,310,2013-01-06 02:55:00
9:15 PM,15.8,12.2,86,30.08,4.0,NW,20.7,28.8,N/A,,Overcast,320,2013-01-06 03:15:00
9:35 PM,15.8,10.4,79,30.09,7.0,NW,17.3,24.2,N/A,,Overcast,320,2013-01-06 03:35:00
9:55 PM,15.8,12.2,86,30.10,5.0,NNW,13.8,20.7,N/A,Snow,Light Snow,330,2013-01-06 03:55:00
10:15 PM,17.6,14.0,86,30.11,7.0,NW,16.1,21.9,N/A,,Overcast,320,2013-01-06 04:15:00
10:35 PM,17.6,14.0,86,30.12,10.0,NW,15.0,23.0,N/A,,Overcast,320,2013-01-06 04:35:00
10:55 PM,17.6,14.0,86,30.12,10.0,NW,17.3,-,N/A,,Mostly Cloudy,310,2013-01-06 04:55:00
11:15 PM,17.6,14.0,86,30.13,10.0,NW,13.8,20.7,N/A,,Scattered Clouds,320,2013-01-06 05:15:00
11:35 PM,17.6,14.0,86,30.12,10.0,NW,12.7,-,N/A,,Clear,320,2013-01-06 05:35:00
11:55 PM,15.8,12.2,86,30.13,10.0,NW,13.8,-,N/A,,Clear,310,2013-01-06 05:55:00